Tel Aviv, Israel

9:41 AM IDT on May 24, 2018 (GMT +0300)
Ben Gurion

Weather History for LLBG - April, 2014

Change the Weather History Date:

Monday, April 7, 2014

  Actual Average Record
Temperature  
Mean Temperature 72 °F -  
Max Temperature 88 °F 74 °F 98 °F (2007)
Min Temperature 57 °F 57 °F 48 °F (2005)
Cooling Degree Days 8    
Growing Degree Days 22 (Base 50)    
Moisture  
Dew Point 51 °F    
Average Humidity 54    
Maximum Humidity 83    
Minimum Humidity 20    
Precipitation  
Precipitation 0.00 in - - ()
Sea Level Pressure  
Sea Level Pressure 29.93 in    
Wind  
Wind Speed 4 mph ()    
Max Wind Speed 17 mph    
Max Gust Speed 23 mph    
Visibility 6.1 miles    
Events      
Averages and records for this station are not official NWS values.
T = Trace of Precipitation, MM = Missing Value Source: Averaged Metar Reports

Daily Weather History Graph

Daily Weather History Graph

Search for Another Location

Airport or City:

Astronomy

Apr. 07, 2014 Rise Set
Actual Time 6:21 AM IDT 7:03 PM IDT
Civil Twilight 5:56 AM IDT 7:28 PM IDT
Nautical Twilight 5:27 AM IDT 7:57 PM IDT
Astronomical Twilight 4:58 AM IDT 8:27 PM IDT
Moon 12:08 PM IDT (4/7) 1:17 AM IDT (4/7)
Length of Visible Light 13h 31m
Length of Day
12h 42m
Waxing Crescent, 50% of the Moon is Illuminated
Apr 7
Waxing Crescent
Apr 15
Full
Apr 22
Last Quarter
Apr 29
New
May 7
First Quarter

Hourly Weather History & Observations

Time (IDT) Temp. Dew Point Humidity Pressure Visibility Wind Dir Wind Speed Gust Speed Precip Events Conditions
12:00 AM 67 °F 49 °F 43% 29.90 in 6 mi 1.2 mph - -  
12:20 AM 66.2 °F 48.2 °F 52% 29.89 in - Variable 1.2 mph - N/A   Clear
12:50 AM 66.2 °F 46.4 °F 49% 29.89 in - Variable 1.2 mph - N/A   Clear
1:20 AM 62.6 °F 48.2 °F 59% 29.89 in - Variable 1.2 mph - N/A   Clear
1:50 AM 62.6 °F 44.6 °F 52% 29.86 in - Variable 3.5 mph - N/A   Clear
2:20 AM 62.6 °F 46.4 °F 55% 29.86 in - Variable 1.2 mph - N/A   Clear
2:50 AM 60.8 °F 48.2 °F 63% 29.86 in - Variable 1.2 mph - N/A   Clear
3:00 AM 61 °F 47 °F 49% 29.88 in 6 mi 1.2 mph - -  
3:20 AM 60.8 °F 46.4 °F 59% 29.86 in - Variable 1.2 mph - N/A   Clear
3:50 AM 59.0 °F 44.6 °F 59% 29.86 in - Variable 2.3 mph - N/A   Clear
4:20 AM 60.8 °F 41.0 °F 48% 29.86 in - Variable 3.5 mph - N/A   Clear
4:50 AM 59.0 °F 41.0 °F 51% 29.86 in - ESE 5.8 mph - N/A   Clear
5:20 AM 60.8 °F 39.2 °F 45% 29.86 in - SE 6.9 mph - N/A   Clear
5:50 AM 60.8 °F 37.4 °F 42% 29.86 in - SSE 4.6 mph - N/A   Clear
6:00 AM 62 °F 37 °F 28% 29.86 in 6 mi 3.5 mph - -   Clear
6:20 AM 60.8 °F 35.6 °F 39% 29.86 in - Variable 2.3 mph - N/A   Clear
6:50 AM 62.6 °F 37.4 °F 39% 29.86 in - Variable 3.5 mph - N/A   Clear
7:20 AM 66.2 °F 37.4 °F 35% 29.86 in - Variable 1.2 mph - N/A   Clear
7:50 AM 68.0 °F 44.6 °F 43% 29.86 in - Variable 1.2 mph - N/A   Clear
8:20 AM 69.8 °F 44.6 °F 40% 29.86 in - Variable 1.2 mph - N/A   Clear
8:50 AM 75.2 °F 41.0 °F 29% 29.86 in - Variable 1.2 mph - N/A   Clear
9:00 AM 74 °F 42 °F 20% 29.87 in 6 mi 1.2 mph - -   Clear
9:20 AM 80.6 °F 41.0 °F 24% 29.86 in - Variable 1.2 mph - N/A   Clear
9:50 AM 84.2 °F 44.6 °F 25% 29.86 in - Variable 1.2 mph - N/A   Clear
10:20 AM 87.8 °F 46.4 °F 24% 29.86 in - Variable 3.5 mph - N/A   Clear
10:50 AM 77.0 °F 51.8 °F 41% 29.89 in - West 17.3 mph - N/A   Clear
11:20 AM 78.8 °F 51.8 °F 39% 29.92 in - West 15.0 mph - N/A   Clear
11:50 AM 78.8 °F 50.0 °F 36% 29.92 in - West 11.5 mph - N/A   Clear
12:00 PM 79 °F 49 °F 24% 29.93 in 6 mi WSW 8.1 mph - -   Clear
12:20 PM 78.8 °F 51.8 °F 39% 29.92 in - WSW 10.4 mph - N/A   Clear
12:50 PM 78.8 °F 50.0 °F 36% 29.95 in - WSW 10.4 mph - N/A   Clear
1:20 PM 78.8 °F 53.6 °F 42% 29.95 in - West 11.5 mph 23.0 mph N/A   Clear
1:50 PM 77.0 °F 55.4 °F 47% 29.95 in - WSW 8.1 mph - N/A   Clear
2:20 PM 77.0 °F 57.2 °F 50% 29.95 in - West 10.4 mph - N/A   Clear
2:50 PM 75.2 °F 59.0 °F 57% 29.95 in 6.2 mi West 10.4 mph - N/A   Partly Cloudy
3:00 PM 76 °F 58 °F 44% 29.96 in 6 mi West 10.4 mph - -   Scattered Clouds
3:20 PM 75.2 °F 59.0 °F 57% 29.95 in 6.2 mi West 10.4 mph - N/A   Partly Cloudy
3:50 PM 75.2 °F 60.8 °F 61% 29.95 in 6.2 mi WSW 10.4 mph - N/A   Partly Cloudy
4:20 PM 75.2 °F 60.8 °F 61% 29.95 in 6.2 mi WSW 8.1 mph - N/A   Partly Cloudy
4:50 PM 73.4 °F 60.8 °F 65% 29.95 in 6.2 mi West 9.2 mph - N/A   Partly Cloudy
5:20 PM 71.6 °F 60.8 °F 69% 29.98 in 6.2 mi West 10.4 mph - N/A   Partly Cloudy
5:50 PM 69.8 °F 60.8 °F 73% 29.98 in 6.2 mi West 9.2 mph - N/A   Partly Cloudy
6:00 PM 70 °F 60 °F 61% 29.99 in 6 mi West 9.2 mph - -   Scattered Clouds
6:20 PM 68.0 °F 59.0 °F 73% 29.98 in 6.2 mi WNW 11.5 mph - N/A   Partly Cloudy
6:50 PM 66.2 °F 59.0 °F 78% 29.98 in 6.2 mi WNW 11.5 mph - N/A   Partly Cloudy
7:20 PM 66.2 °F 59.0 °F 78% 29.98 in 6.2 mi WNW 9.2 mph - N/A   Partly Cloudy
7:50 PM 66.2 °F 59.0 °F 78% 30.01 in 6.2 mi WNW 8.1 mph - N/A   Partly Cloudy
8:20 PM 64.4 °F 59.0 °F 83% 30.01 in - WNW 4.6 mph - N/A   Clear
8:50 PM 64.4 °F 59.0 °F 83% 30.01 in 6.2 mi WNW 6.9 mph - N/A   Partly Cloudy
9:00 PM 65 °F 58 °F 73% 30.02 in 6 mi WNW 6.9 mph - -   Scattered Clouds
9:20 PM 64.4 °F 57.2 °F 77% 30.01 in 6.2 mi Variable 3.5 mph - N/A   Partly Cloudy
9:50 PM 62.6 °F 57.2 °F 82% 30.04 in - Variable 3.5 mph - N/A   Clear
10:20 PM 62.6 °F 57.2 °F 82% 30.04 in - West 4.6 mph - N/A   Clear
10:50 PM 62.6 °F 57.2 °F 82% 30.04 in 6.2 mi Variable 3.5 mph - N/A   Scattered Clouds
11:20 PM 62.6 °F 57.2 °F 82% 30.04 in 6.2 mi Variable 2.3 mph - N/A   Scattered Clouds
11:50 PM 62.6 °F 57.2 °F 82% 30.04 in 6.2 mi Variable 2.3 mph - N/A   Scattered Clouds